STARLINK-5489 (56136 NORAD) Tracking and Keplerian Element Data

This shows tracking and keplerian element data for the satellite.

Feedback or suggestion? Click here.




ElementValue
Catalog56136
NameSTARLINK-5489
Epoch Orbit656
Epoch Day127.25001157
Epoch Year2023
RAAN33.6898
Inclination43.0016
Eccentricity0.0001532
Argument of Perigee266.4116
Mean Anonmoly353.7942
Mean Motion15.48880182
Decay Rate0.00071956
L11 56136U 23046AW 23127.25001157 .00071956 00000+0 12966-2 0 9995
L22 56136 43.0016 33.6898 0001532 266.4116 353.7942 15.48880182 6566



Live tracking and technical data element details for STARLINK-5489 (NORAD 56136). STARLINK-5489 can be tracked NOW for your location showing map with azimuth and elevation plus other details from your city location.







IsCatalogInMostPopularTable: catalog: 56136, numindb: 3
Update: records affected: 1



GetName: 56136 STARLINK-5489

Hit Count: updated at: Mon, 05 Jun 2023 00:54:00 GMT